Presure
170 199 186 216 213 201 212 182 195 192 192 201 199 191 195 196 192 193 201 202 213 207 214 213 200 216 207 200 210 204 198 210 205 197 207 212 222 228 222 221 241 307 297 280 269
179 169 166 180 221 201 203 181 185 204 204 179 157 192 190 190 181 206 206 195 182 199 203 208 195 202 206 198 199 224 196 213 200 199 223 211 206 219 218 217 312 301 269 279 267
170 155 185 121 229 227 186 206 141 200 204 215 155 198 199 206 189 199 198 193 203 204 202 199 190 196 199 204 196 193 203 208 205 228 217 215 209 212 210 218 279 276 277 113 259
158 200 179 216 211 229 197 196 217 190 168 197 135 209 202 159 195 200 191 201 207 194 193 207 188 191 203 194 203 204 189 211 208 198 206 214 201 209 205 221 262 255 241 270 252
177 175 205 161 171 216 216 218 192 159 196 161 208 206 189 206 194 187 203 201 205 206 204 199 203 200 186 180 189 199 207 191 207 193 188 209 209 207 215 210 263 238 248 273 233
197 167 228 188 243 178 219 198 191 177 170 190 151 209 198 193 186 196 209 187 201 205 205 205 204 199 194 192 173 201 185 207 192 197 184 210 209 207 205 215 287 244 224 224 252
207 226 203 174 224 236 226 199 206 209 212 205 195 207 184 172 198 184 200 192 188 200 189 193 187 206 207 187 216 179 194 212 187 210 213 211 200 208 195 207 287 264 241 211 205
208 215 207 219 230 238 230 223 227 201 199 184 204 193 199 195 199 192 193 204 189 188 191 214 202 204 201 201 197 190 186 192 181 187 181 212 203 202 205 210 263 251 234 265 204
206 235 214 219 241 241 219 204 219 210 207 200 203 205 186 189 185 198 188 185 187 191 198 218 212 213 206 212 207 214 201 203 181 212 199 221 203 203 207 211 269 255 240 228 225
235 216 252 252 230 246 223 215 207 210 216 189 206 192 199 188 182 193 193 188 188 181 213 206 208 203 199 198 203 187 209 192 188 180 185 220 201 205 203 219 218 261 232 237 237
235 267 264 252 229 237 238 221 235 214 217 206 216 183 190 201 183 163 201 217 204 198 188 202 206 192 204 195 196 214 202 196 202 179 191 202 202 204 202 213 210 264 234 229 242
263 277 270 255 238 239 234 230 223 217 205 211 203 195 205 218 185 196 210 178 199 187 198 178 195 196 193 196 194 190 205 193 192 193 191 193 202 197 194 207 204 274 245 231 232
279 273 268 249 253 240 228 234 223 226 223 215 210 214 208 196 205 191 210 196 192 200 192 201 191 214 178 201 183 187 194 196 197 202 191 187 205 202 191 199 205 264 237 252 247
278 269 258 252 243 242 240 227 233 227 232 221 212 204 203 197 162 201 197 199 195 204 199 198 206 205 211 201 203 195 186 187 192 201 177 181 211 200 192 217 202 255 223 259 244
273 247 262 252 252 241 236 249 236 237 200 223 210 214 206 201 196 202 194 205 188 204 204 209 198 203 207 201 206 191 200 194 190 198 190 183 193 196 189 209 196 258 238 218 245
262 261 260 243 242 250 245 236 245 224 185 223 212 179 208 201 211 200 215 210 209 205 213 211 202 202 198 203 203 205 195 200 190 191 194 179 208 196 185 198 201 259 252 221 227
269 270 262 256 248 253 239 236 248 245 149 219 153 118 216 208 209 211 209 213 218 211 214 217 204 204 205 208 196 185 192 181 192 193 190 184 200 196 187 198 186 218 234 252 224
244 265 252 257 259 254 250 241 248 228 204 78 132 232 220 218 216 215 218 223 222 225 214 196 206 205 206 210 206 204 198 191 176 190 189 185 191 203 193 189 200 211 212 268 243
259 244 262 269 262 271 252 268 101 253 237 239 240 242 216 231 222 220 225 231 223 218 203 217 202 202 206 205 210 197 204 211 190 184 183 189 185 207 190 195 195 190 197 202 209
264 272 274 265 262 263 280 276 259 253 249 248 213 188 87 242 229 229 231 232 222 217 214 212 211 208 213 217 222 249 208 192 212 183 185 187 183 200 194 182 188 187 187 194 203
285 286 279 285 288 293 290 262 261 261 263 261 267 263 271 257 253 247 244 220 224 228 230 225 228 223 229 229 222 224 235 210 205 184 178 187 181 194 194 195 190 177 190 202 194
283 292 297 290 292 187 298 300 309 304 298 291 99 191 278 270 269 231 284 271 271 274 252 240 237 228 227 226 228 266 232 227 207 203 191 192 178 185 201 180 192 189 174 166 196
277 283 283 289 297 296 179 285 277 283 287 289 276 100 281 100 281 301 300 197 297 296 282 276 281 274 268 263 274 267 238 232 225 206 192 179 182 206 202 185 192 190 177 189 192
279 284 297 77 291 287 301 279 280 282 287 296 320 304 302 331 360 406 361 336 307 272 292 279 262 272 266 241 233 241 222 221 221 214 203 200 203 208 195 182 184 189 174 197 191
373 416 390 406 288 90 89 333 329 301 265 142 252 253 290 310 340 417 392 369 336 295 259 289 289 277 267 263 260 243 240 237 227 215 203 196 206 207 194 187 179 188 187 181 179
338 348 386 375 278 284 141 320 310 206 290 87 285 288 294 109 194 382 308 320 354 289 271 279 270 267 277 270 263 268 226 237 220 223 212 206 193 206 198 187 178 187 193 196 195
315 337 339 316 289 273 258 135 270 281 273 278 281 292 291 284 309 375 293 290 297 296 282 274 265 259 267 257 252 258 242 214 228 219 197 209 194 201 207 195 184 181 188 192 189
Wind_Speed
82 78 70 73 73 72 76 79 70 72 69 68 66 65 65 63 62 66 61 56 51 55 49 47 54 44 42 49 45 47 49 41 44 49 46 44 46 47 48 47 52 28 27 34 33
65 74 80 82 76 76 73 80 76 73 73 81 75 69 67 68 71 58 58 60 60 56 54 49 55 50 45 48 47 49 44 43 43 45 42 42 46 47 48 45 28 27 37 38 33
85 87 68 69 77 75 74 73 64 73 74 73 72 70 66 62 66 61 55 59 55 58 55 52 55 52 44 43 44 46 45 47 42 44 39 41 42 45 48 46 25 23 27 25 33
85 79 61 80 79 77 76 74 77 72 69 69 69 61 63 78 64 61 60 60 55 58 57 54 54 53 51 40 39 46 46 47 44 35 37 39 40 44 46 47 29 37 32 29 33
81 68 79 83 68 78 79 78 74 72 73 69 66 64 69 61 67 62 59 56 57 56 55 53 52 51 49 46 42 43 41 40 44 37 38 42 40 43 45 41 35 37 35 19 23
73 80 79 72 80 84 79 81 73 75 68 72 73 67 64 66 65 56 61 64 55 52 53 56 53 52 51 45 48 43 44 46 40 43 38 40 37 42 38 38 30 38 30 27 30
95 94 78 75 79 83 82 76 79 78 76 73 71 66 65 79 63 65 57 56 56 51 51 51 50 57 55 47 47 40 41 41 40 43 39 37 38 41 37 34 24 32 33 27 10
96 92 83 79 81 80 85 87 82 76 78 70 71 69 67 72 67 61 58 61 55 55 56 55 53 52 52 53 40 40 43 38 40 39 38 37 36 39 40 33 30 28 27 38 20
94 107 87 80 79 78 88 78 79 82 80 67 70 69 70 71 68 68 62 60 57 62 62 51 46 48 48 47 46 40 48 42 37 38 42 33 35 39 36 33 29 27 30 31 31
104 95 84 79 82 78 87 87 77 74 80 68 74 70 76 74 74 71 72 65 62 54 56 49 43 47 49 34 40 35 43 41 37 34 40 34 35 38 35 36 38 28 24 31 38
97 87 79 76 82 82 82 89 78 83 86 82 81 66 75 80 70 66 77 67 68 60 52 50 44 56 38 35 40 41 39 42 39 38 40 34 36 36 35 35 33 25 25 29 34
88 73 72 74 80 82 83 86 89 87 82 84 78 73 88 82 68 78 70 50 56 57 59 43 50 57 41 42 39 37 39 41 37 35 36 34 35 36 33 32 28 23 22 30 32
73 70 73 76 81 84 86 85 87 86 86 84 80 79 86 75 75 71 70 64 61 64 58 55 56 62 39 55 38 39 39 34 40 32 34 33 36 33 33 32 28 23 22 25 23
70 72 75 77 82 86 85 86 87 87 89 82 86 79 80 73 39 78 69 72 64 69 69 62 67 64 59 54 56 47 41 34 36 37 34 32 31 32 33 32 24 21 19 14 15
71 77 77 79 84 87 85 87 87 87 57 85 81 84 79 77 62 78 74 77 55 72 73 67 64 56 46 50 53 52 43 39 38 38 32 34 31 30 33 31 20 19 16 16 12
78 80 82 81 87 88 87 89 89 82 59 85 84 61 72 66 76 67 86 78 79 72 70 68 68 59 54 59 47 55 44 42 39 34 32 32 31 29 32 31 25 21 13 12 11
81 83 84 88 92 91 88 87 91 89 27 84 35 24 88 83 85 82 85 83 83 79 71 71 64 61 53 57 44 43 53 38 37 37 34 30 28 28 33 31 24 24 16 13 9
81 83 82 91 93 93 92 86 86 74 74 22 36 91 90 92 94 91 85 82 76 78 72 56 64 70 69 66 62 59 50 42 39 42 29 29 29 32 31 29 22 24 16 13 9
83 80 82 88 90 96 90 92 19 87 86 96 95 96 83 96 98 93 87 87 78 74 64 77 59 70 72 67 70 55 53 51 49 34 34 30 29 31 31 24 23 19 14 7 6
83 84 82 87 87 89 90 83 81 83 91 93 79 64 21 96 92 87 79 85 77 76 80 77 75 78 82 73 69 61 62 47 47 39 42 31 29 32 32 28 24 21 21 16 14
84 84 78 85 88 88 76 72 77 81 87 94 92 96 96 95 95 94 92 72 84 92 91 82 83 82 84 72 67 70 67 62 49 47 46 37 32 31 34 29 24 25 21 12 17
76 72 69 77 77 42 57 59 61 69 77 75 27 59 90 86 86 66 87 88 92 89 92 86 84 81 79 69 68 66 68 65 53 52 54 40 34 33 38 35 26 24 28 31 15
72 64 63 71 64 54 30 56 62 67 71 71 64 29 78 26 64 69 68 46 73 72 76 78 72 67 73 67 61 60 64 62 58 56 53 38 42 42 39 40 31 27 27 22 20
71 66 61 22 51 54 52 56 56 61 62 59 51 58 58 49 44 44 55 67 68 68 68 74 66 59 57 57 61 62 64 63 58 55 55 48 52 40 42 40 36 32 36 23 22
40 38 40 33 40 21 18 39 41 47 56 26 37 39 49 44 34 30 35 52 62 64 66 64 56 51 54 62 65 63 66 62 57 54 54 51 51 44 47 43 38 37 35 33 31
43 36 33 31 51 50 22 38 41 33 46 15 48 50 47 23 25 30 45 45 47 61 60 58 51 48 51 56 57 58 59 56 50 51 52 51 49 45 46 45 42 42 37 35 32
40 35 36 41 48 51 46 14 46 46 50 48 49 46 40 40 29 29 52 50 48 54 56 54 52 52 52 57 61 57 53 55 53 54 53 51 50 50 50 46 48 45 41 37 35
Wind_Direction
259 272 269 275 273 271 271 266 271 269 270 271 272 274 274 276 277 279 281 282 288 285 285 283 284 289 283 285 292 286 287 296 295 288 295 303 304 303 304 311 315 278 273 278 240
263 262 269 268 274 272 270 262 267 271 269 270 270 274 273 273 274 278 283 281 278 283 285 283 285 289 286 286 289 301 288 298 293 294 304 303 301 308 312 315 287 268 299 278 247
262 265 271 258 273 266 265 267 261 269 269 267 269 271 269 272 275 275 278 280 283 282 283 284 285 288 288 290 290 286 298 303 304 303 304 304 306 310 312 317 308 298 287 270 261
263 282 266 280 272 266 268 268 262 267 269 268 263 267 272 272 274 277 279 280 282 279 282 286 282 286 289 285 295 297 290 300 304 300 305 308 307 311 311 319 303 304 298 279 260
274 258 278 264 273 273 269 266 267 258 266 260 268 268 271 270 271 274 279 279 280 282 282 282 283 282 279 277 283 293 291 295 304 292 295 310 309 309 316 318 289 316 298 244 249
277 276 277 269 266 269 264 265 265 261 260 267 261 264 266 269 268 273 275 276 280 282 279 281 282 283 282 282 275 289 286 295 299 302 294 304 308 306 314 316 290 288 296 297 268
282 282 278 258 272 260 257 267 264 262 260 265 266 265 265 264 273 271 271 277 274 280 283 288 284 285 286 279 289 273 288 292 294 297 308 306 307 310 310 317 309 283 277 285 268
283 280 280 275 271 258 258 257 253 263 263 258 262 268 268 270 272 271 275 275 274 280 282 290 286 282 282 284 280 280 280 286 281 291 289 308 307 308 309 317 312 297 294 273 262
278 274 277 271 264 255 259 264 257 259 258 259 260 260 265 271 270 270 271 271 274 280 282 289 284 281 278 284 283 288 285 286 283 297 297 310 304 303 313 320 313 299 281 285 268
275 277 271 266 264 252 256 260 255 256 250 264 257 268 260 267 265 270 270 273 276 267 279 281 284 285 278 284 285 274 286 278 287 279 292 309 305 303 318 322 323 300 275 282 273
274 272 265 261 262 256 251 255 253 254 256 261 251 261 265 258 268 262 272 273 276 277 277 281 285 275 284 280 284 290 279 278 291 278 294 306 303 312 317 320 324 297 284 288 285
270 261 254 255 256 251 252 250 253 255 259 256 257 256 256 257 269 268 267 261 269 271 275 260 279 277 277 277 279 271 276 273 285 286 292 301 308 301 308 314 321 298 287 290 291
257 251 248 251 246 246 252 250 252 253 252 255 257 249 251 262 258 271 265 268 267 274 275 274 270 277 252 274 265 270 277 279 284 291 287 291 301 302 305 312 324 307 306 275 273
252 246 245 245 249 248 248 254 251 252 248 247 250 251 256 263 257 262 262 261 267 267 271 273 274 271 271 270 269 274 263 272 280 290 272 282 300 301 301 314 317 320 306 264 263
247 255 243 247 243 248 250 244 248 247 261 247 252 253 253 258 256 258 263 262 258 264 265 266 267 269 272 268 267 266 266 274 278 284 279 278 297 296 296 306 304 321 311 304 266
249 248 245 252 250 247 246 252 248 254 246 249 250 258 260 261 257 253 261 261 265 268 264 263 267 268 262 265 264 262 267 274 271 273 278 274 300 293 293 299 306 332 313 298 285
249 245 244 243 249 246 252 253 246 245 251 253 244 240 253 258 258 258 260 262 259 262 263 256 261 264 269 271 259 250 258 260 266 271 272 276 298 289 287 294 294 316 344 310 294
259 247 252 246 247 250 249 255 250 254 248 245 252 249 249 252 255 257 260 261 259 258 256 258 263 263 263 261 259 255 251 251 245 261 261 269 281 288 277 287 303 311 322 322 291
253 257 251 248 251 248 253 250 234 250 251 249 251 248 249 249 252 256 259 259 260 260 256 253 255 258 258 257 259 245 252 246 246 250 251 259 268 282 275 284 292 288 291 311 336
253 252 252 253 253 253 250 251 251 251 251 250 253 251 252 249 250 254 256 256 256 255 253 251 252 256 258 256 263 259 247 240 244 244 250 251 263 276 269 272 274 283 288 297 305
252 252 252 253 253 254 256 253 252 251 250 250 250 253 251 251 251 252 254 249 253 252 251 250 252 255 256 258 253 252 247 245 239 237 243 246 249 269 261 261 263 256 280 295 286
254 254 253 254 255 250 254 251 249 248 249 250 239 250 253 252 252 252 252 251 251 252 254 252 249 248 253 250 251 251 244 243 235 235 240 244 239 253 261 255 250 253 251 260 273
255 255 249 253 255 255 239 244 243 246 247 248 247 240 251 242 248 246 245 247 244 243 242 247 246 246 249 253 246 241 241 241 239 233 237 238 241 255 247 248 245 247 241 260 270
254 254 253 239 252 250 245 243 244 247 249 250 247 248 253 250 249 234 226 226 233 239 236 239 241 240 240 237 231 232 233 234 233 230 236 238 245 238 234 243 249 243 240 250 257
241 228 230 231 238 226 237 222 220 234 243 236 241 245 246 247 247 205 211 222 221 226 236 234 232 234 233 233 232 225 229 226 226 223 228 232 238 233 231 236 245 246 245 241 238
242 237 230 219 233 233 234 208 213 223 231 238 235 240 244 241 244 212 204 212 212 218 225 229 226 225 219 218 223 226 225 227 224 223 225 227 232 237 231 234 241 245 247 249 255
245 237 228 220 223 230 233 227 226 222 233 233 235 236 237 241 221 213 207 210 206 212 214 221 224 218 207 211 214 215 220 222 223 218 224 226 231 232 229 230 239 244 248 251 251